Weather History for Jacksonville, FL

Change the Weather History Date:

Tuesday, November 27, 2012

  Actual Average Record
Temperature  
Mean Temperature 60 °F 59 °F  
Max Temperature 76 °F 71 °F 83 °F (1973)
Min Temperature 44 °F 48 °F 30 °F (1903)
Degree Days  
Heating Degree Days 5 7  
Month to date heating degree days 191 124  
Since 1 July heating degree days 223 152  
Cooling Degree Days 0 1  
Month to date cooling degree days 14 56  
Year to date cooling degree days 2743 2639  
Growing Degree Days 10 (Base 50)    
Moisture  
Dew Point 54 °F    
Average Humidity 75    
Maximum Humidity 93    
Minimum Humidity 57    
Precipitation  
Precipitation T in 0.07 in 0.94 in (1893)
Month to date precipitation 0.25 1.87  
Year to date precipitation 51.08 49.35  
Snow  
Snow 0.00 in 0.00 in 0.00 in (2001)
Month to date snowfall 0.0 0.0  
Since 1 July snowfall 0.0 0.0  
Since 1 September snowfall 0.0 0.0  
Snow Depth 0.00 in    
Sea Level Pressure  
Sea Level Pressure 30.15 in    
Wind  
Wind Speed 5 mph (NW)    
Max Wind Speed 14 mph    
Max Gust Speed 17 mph    
Visibility 10 miles    
Events Rain    
T = Trace of Precipitation, MM = Missing Value Source: NWS Daily Summary

Daily Weather History Graph

Daily Weather History Graph

Search for Another Location

Airport:

Trip Planner

Search our weather history database for the weather conditions in past years. The results will help you decide how hot, cold, wet, or windy it might be!

Date:

Astronomy

Nov. 27, 2012 Rise Set
Actual Time 7:03 AM EST 5:25 PM EST
Civil Twilight 6:37 AM EST 5:51 PM EST
Nautical Twilight 6:07 AM EST 6:21 PM EST
Astronomical Twilight 5:38 AM EST 6:50 PM EST
Moon 4:55 PM EST (11/27) 6:08 AM EST (11/27)
Length of Visible Light 11h 14m
Length of Day
10h 22m
Waxing Gibbous, 99% of the Moon is Illuminated
Nov 27
Waxing Gibbous
Nov 28
Full
Dec 6
Last Quarter
Dec 13
New
Dec 20
First Quarter

Hourly Weather History & Observations

Time (EST) Temp. Dew Point Humidity Pressure Visibility Wind Dir Wind Speed Gust Speed Precip Events Conditions
12:56 AM 46.0 °F 44.1 °F 93% 30.19 in 10.0 mi Calm Calm - N/A   Mostly Cloudy
1:56 AM 46.0 °F 44.1 °F 93% 30.18 in 10.0 mi Calm Calm - N/A   Mostly Cloudy
2:56 AM 45.0 °F 43.0 °F 93% 30.17 in 10.0 mi Calm Calm - N/A   Scattered Clouds
3:56 AM 46.0 °F 44.1 °F 93% 30.17 in 10.0 mi Calm Calm - N/A   Scattered Clouds
4:56 AM 46.9 °F 45.0 °F 93% 30.17 in 10.0 mi Calm Calm - N/A   Scattered Clouds
5:56 AM 50.0 °F 46.9 °F 89% 30.17 in 10.0 mi Calm Calm - N/A   Mostly Cloudy
6:56 AM 51.8 °F 48.2 °F 88% 30.17 in 10.0 mi Calm Calm - N/A   Mostly Cloudy
7:56 AM 54.0 °F 50.0 °F 86% 30.17 in 10.0 mi Calm Calm - N/A   Mostly Cloudy
8:56 AM 64.0 °F 57.9 °F 80% 30.17 in 10.0 mi South 9.2 mph - N/A   Mostly Cloudy
9:56 AM 69.1 °F 60.1 °F 73% 30.19 in 10.0 mi South 6.9 mph - N/A   Overcast
10:56 AM 73.0 °F 60.1 °F 64% 30.18 in 10.0 mi SW 10.4 mph - N/A   Mostly Cloudy
11:56 AM 73.4 °F 59.0 °F 61% 30.16 in 10.0 mi WSW 10.4 mph - N/A   Mostly Cloudy
12:56 PM 73.9 °F 59.0 °F 59% 30.13 in 10.0 mi West 6.9 mph - N/A   Mostly Cloudy
1:56 PM 75.0 °F 59.0 °F 57% 30.10 in 10.0 mi West 12.7 mph 17.3 mph N/A   Mostly Cloudy
2:56 PM 73.9 °F 57.9 °F 57% 30.09 in 10.0 mi West 8.1 mph - N/A   Mostly Cloudy
3:56 PM 73.4 °F 59.0 °F 61% 30.09 in 10.0 mi West 6.9 mph - N/A   Mostly Cloudy
4:56 PM 69.1 °F 60.1 °F 73% 30.10 in 10.0 mi NNW 4.6 mph - N/A   Mostly Cloudy
5:56 PM 66.9 °F 60.1 °F 79% 30.11 in 10.0 mi NNW 3.5 mph - N/A   Overcast
6:56 PM 68.0 °F 60.1 °F 76% 30.13 in 10.0 mi North 3.5 mph - N/A   Overcast
7:56 PM 63.0 °F 57.0 °F 81% 30.16 in 10.0 mi North 8.1 mph - N/A   Overcast
8:22 PM 62.6 °F 55.4 °F 77% 30.16 in 10.0 mi North 8.1 mph - 0.00 in Rain Light Rain
8:49 PM 60.8 °F 55.4 °F 82% 30.16 in 10.0 mi NNE 5.8 mph - 0.00 in   Overcast
8:56 PM 60.1 °F 55.0 °F 83% 30.16 in 10.0 mi NNE 6.9 mph - 0.00 in   Overcast
9:56 PM 59.0 °F 55.0 °F 87% 30.17 in 10.0 mi NE 5.8 mph - N/A   Overcast
10:56 PM 57.9 °F 54.0 °F 87% 30.17 in 10.0 mi Calm Calm - 0.00 in   Overcast
11:56 PM 57.9 °F 55.0 °F 90% 30.18 in 3.0 mi WNW 4.6 mph - 0.00 in Rain Light Rain